Location: Pitton
(51.0667°N, 1.7000°W)
Time: 07:38:36
(UTC+00:00)

USA 116 - Pass Details

Date: 17 September 2019
Orbit: 405 x 834 km, 97.9° (Epoch: 18 November)

Event Time Altitude Azimuth Distance (km) Brightness Sun altitude
Rises 18:54:31 0° 12° (NNE) 2,968 7.5 -6.6°
Reaches altitude 10° 18:56:53 10° 9° (N) 1,985 6.6 -7.0°
Maximum altitude 19:01:08 65° 288° (WNW) 619 4.3 -7.6°
Drops below altitude 10° 19:04:50 10° 207° (SSW) 1,736 6.4 -8.2°
Sets 19:06:47 0° 204° (SSW) 2,559 7.3 -8.5°
